TimeEDT,TemperatureF,Dew PointF,Humidity,Sea Level PressureIn,VisibilityMPH,Wind Direction,Wind SpeedMPH,Gust SpeedMPH,PrecipitationIn,Events,Conditions,WindDirDegrees,DateUTC
12:51 AM,61.0,53.1,75,30.02,10.0,South,8.1,-,N/A,,Clear,170,2013-08-06 04:51:00
1:51 AM,61.0,52.0,72,30.02,10.0,South,5.8,-,N/A,,Mostly Cloudy,170,2013-08-06 05:51:00
2:51 AM,61.0,52.0,72,30.02,10.0,South,5.8,-,N/A,,Overcast,170,2013-08-06 06:51:00
3:51 AM,62.1,52.0,70,30.01,10.0,South,8.1,-,N/A,,Overcast,170,2013-08-06 07:51:00
4:51 AM,62.1,51.1,67,30.01,10.0,South,8.1,-,N/A,,Overcast,170,2013-08-06 08:51:00
5:51 AM,62.1,51.1,67,30.02,10.0,South,6.9,-,N/A,,Mostly Cloudy,170,2013-08-06 09:51:00
6:51 AM,62.1,51.1,67,30.02,10.0,South,8.1,-,N/A,,Overcast,170,2013-08-06 10:51:00
7:51 AM,63.0,52.0,67,30.01,10.0,SSE,11.5,-,N/A,,Mostly Cloudy,160,2013-08-06 11:51:00
8:51 AM,66.9,53.1,61,30.03,10.0,South,9.2,-,N/A,,Clear,180,2013-08-06 12:51:00
9:51 AM,71.1,53.1,53,30.04,10.0,South,9.2,-,N/A,,Clear,190,2013-08-06 13:51:00
10:51 AM,73.9,54.0,50,30.03,10.0,South,5.8,-,N/A,,Clear,170,2013-08-06 14:51:00
11:51 AM,75.9,54.0,46,30.03,10.0,SSW,8.1,-,N/A,,Clear,200,2013-08-06 15:51:00
12:51 PM,78.1,55.0,45,30.00,10.0,Variable,4.6,-,N/A,,Clear,0,2013-08-06 16:51:00
1:51 PM,77.0,55.9,48,30.00,10.0,NW,3.5,-,N/A,,Partly Cloudy,310,2013-08-06 17:51:00
2:39 PM,78.8,57.2,47,30.00,10.0,North,5.8,-,N/A,,Partly Cloudy,350,2013-08-06 18:39:00
2:51 PM,79.0,57.9,48,29.99,10.0,North,9.2,-,N/A,,Clear,10,2013-08-06 18:51:00
3:51 PM,77.0,57.9,52,29.99,10.0,North,8.1,-,N/A,,Partly Cloudy,350,2013-08-06 19:51:00
4:51 PM,75.0,57.9,55,29.99,10.0,NE,6.9,-,N/A,,Scattered Clouds,50,2013-08-06 20:51:00
5:51 PM,73.9,59.0,59,29.98,10.0,NE,8.1,-,N/A,,Mostly Cloudy,40,2013-08-06 21:51:00
6:51 PM,73.0,57.9,59,29.99,10.0,ENE,3.5,-,N/A,,Overcast,60,2013-08-06 22:51:00
7:51 PM,73.0,59.0,61,29.98,10.0,NE,3.5,-,N/A,,Overcast,50,2013-08-06 23:51:00
8:51 PM,73.0,59.0,61,29.98,10.0,Calm,Calm,-,N/A,,Overcast,0,2013-08-07 00:51:00
9:51 PM,70.0,60.1,71,29.97,10.0,Calm,Calm,-,N/A,,Clear,0,2013-08-07 01:51:00
10:51 PM,68.0,59.0,73,29.97,10.0,SSE,4.6,-,N/A,,Clear,160,2013-08-07 02:51:00
11:51 PM,68.0,57.0,68,29.96,10.0,SSE,8.1,-,N/A,,Clear,160,2013-08-07 03:51:00